Regional Weather Roundup
Issued by NWS

Home | Current Version | Previous Version | Text Only | Print | Product List | Glossary Off
Versions: 1 2 3 4 5 6 7 8 9 10 11 12 13 14 15 16 17 18 19 20 21 22 23 24 25 26 27 28 29 30 31 32 33 34 35 36 37 38 39 40 41 42 43 44 45 46 47 48 49 50

000
ASUS43 KDMX 290307
RWRIA

WEATHER ROUNDUP FOR IOWA
NATIONAL WEATHER SERVICE DES MOINES IA
1000 PM CDT SAT MAR 28 2015

NOTE: "FAIR" INDICATES FEW OR NO CLOUDS BELOW 12,000 FEET WITH NO
SIGNIFICANT WEATHER AND/OR OBSTRUCTIONS TO VISIBILITY.

* - THESE STATIONS ARE NOT NWS STATIONS...THUS NOT UNDER NWS
QUALITY CONTROL.  THEY ALSO DO NOT REPORT WEATHER SUCH
AS PRECIPITATION OR FOG.

IAZ001>003-012>014-020>022-031>034-043>046-290400-
   NORTHWEST IOWA

CITY           SKY/WX    TMP DP  RH WIND       PRES   REMARKS
CARROLL *      CLEAR     39  27  60 S17       30.03S WCI  30
CHEROKEE *     CLEAR     39  28  65 S10       29.97F WCI  32
DENISON *      CLEAR     41  30  65 S15G21    29.98S
LE MARS *      CLEAR     43  30  61 SE14G21   29.92F
ORANGE CITY *  CLEAR     43  28  56 S14       29.92F
SHELDON *      CLEAR     41  30  65 S22       29.91F
SIOUX CITY     CLEAR     46  30  53 S14       29.95F
SPENCER        CLEAR     40  28  62 S16       29.97F WCI  31
STORM LAKE *   CLEAR     39  28  65 S18       29.98F WCI  30
$$

IAZ055>058-069>071-079>083-090>094-290400-
   SOUTHWEST IOWA

CITY           SKY/WX    TMP DP  RH WIND       PRES   REMARKS
ATLANTIC *     MOCLDY    41  30  65 SE13G24   30.04F
AUDUBON *      CLEAR     39  28  65 S10       30.04F WCI  32
CLARINDA *     CLEAR     43  32  65 SE12      30.08F
COUNCIL BLFS * CLEAR     43  32  65 S15       30.02S
CRESTON *      CLEAR     37  28  70 SE13      30.09F WCI  29
HARLAN  *      CLEAR     41  32  70 S15       30.05F
LAMONI         CLEAR     39  27  62 SE9       30.12S WCI  33
RED OAK *      CLEAR     43  32  65 SE14      30.05F
SHENANDOAH *   CLEAR     43  32  65 SE12      30.05F
$$

IAZ047>049-059>061-072>074-084-290400-
   CENTRAL IOWA

CITY           SKY/WX    TMP DP  RH WIND       PRES   REMARKS
AMES           CLEAR     38  20  48 SE12      30.10S WCI  30
ANKENY *       CLEAR     39  21  48 S13       30.11F WCI  32
CHARITON *     PTCLDY    36  23  60 SE9       30.14R WCI  29
DES MOINES     CLEAR     40  22  48 SE12      30.12S WCI  33
GRINNELL*      CLEAR     34  18  51 SE10      30.15S WCI  26
KNOXVILLE *    CLEAR     37  19  48 SE8       30.13S WCI  31
MARSHALLTOWN   CLEAR     35  18  49 SE14      30.11F WCI  26
PELLA *        CLEAR     39  23  52 SE9       30.16S WCI  33
PERRY *          N/A     36  27  69 S9        30.08S WCI  29
$$

IAZ004>006-015-016-023>025-035-036-290400-
   NORTH CENTRAL IOWA

CITY           SKY/WX    TMP DP  RH WIND       PRES   REMARKS
ALGONA *       CLEAR     37  25  60 S16       30.02S WCI  28
CLARION *      CLEAR     36  25  64 SE15      30.05F WCI  26
ESTHERVILLE    CLEAR     38  26  62 S20       29.97F WCI  28
FORT DODGE *   CLEAR     41  21  45 S8G18     30.04F
MASON CITY     CLEAR     34  21  59 S14       30.07F WCI  25
FOREST CITY *  CLEAR     34  25  69 SE14      30.04F WCI  24
IOWA FALLS *     N/A     34  23  64 SE12      30.10F WCI  25
$$

IAZ007>011-017>019-026>030-037>042-050>054-066-290400-
   NORTHEAST IOWA

CITY           SKY/WX    TMP DP  RH WIND       PRES   REMARKS
CEDAR RAPIDS   CLEAR     33  16  49 SE9       30.18S WCI  25
CHARLES CITY * CLEAR     34  19  55 SE14      30.10F WCI  24
CLINTON *      CLEAR     30  14  51 S8        30.26S WCI  23
DECORAH *      PTCLDY    32  18  55 S10       30.12F WCI  24
DUBUQUE        CLEAR     28  15  58 S12       30.20S WCI  18
MONTICELLO *   CLEAR     30  18  59 SE7       30.20S WCI  23
OELWEIN *      CLEAR     32  19  59 SE13      30.15F WCI  22
WATERLOO       CLEAR     35  15  44 S17       30.13F WCI  25
$$

IAZ064-065-067-068-078-290400-
   EAST CENTRAL IOWA

CITY           SKY/WX    TMP DP  RH WIND       PRES   REMARKS
DAVENPORT      CLEAR     32  14  47 S12       30.24S WCI  23
IOWA CITY      CLEAR     31  16  54 SE7       30.22S WCI  24
MT. PLEASANT * CLEAR     32  18  55 SE9       30.22S WCI  24
MUSCATINE *    CLEAR     36  14  41 SE7       30.23F WCI  30
QUAD CITIES    CLEAR     31  14  49 S9        30.24F WCI  23
$$

IAZ062-063-075>077-085>089-095>099-290400-
   SOUTHEAST IOWA

CITY           SKY/WX    TMP DP  RH WIND       PRES   REMARKS
BURLINGTON     CLEAR     35  17  47 SE9       30.23S WCI  28
FAIRFIELD *    CLEAR     34  18  51 SE10      30.20R WCI  26
FORT MADISON * CLEAR     36  18  48 SE10      30.23S WCI  28
KEOKUK *       CLEAR     36  19  51 SE9       30.22S WCI  29
OSKALOOSA *      N/A     30  19  64 SE8       30.18R WCI  23
CENTERVILLE *  CLEAR     36  23  60 SE9       30.17S WCI  29
OTTUMWA        CLEAR     35  18  49 SE10      30.17S WCI  27
WASHINGTON *   CLEAR     32  18  55 SE10      30.20S WCI  24
$$

ABBREVIATIONS USED IN REMARKS
   TC - TEMPERATURES IN CELSIUS
  WCI - WIND CHILL INDEX
   HX - HEAT INDEX
  VSB - VISIBILITY
$$




USA.gov is the U.S. government's official web portal to all federal, state and local government web resources and services.